When you browse on this site, cookies collect data to enhance your experience and personalize the content and advertising you see.
Visit our Privacy Policy to learn more. By continuing to use the site, you agree to this use of cookies and data.
  • In Portugal
  • List of Countries
  • For 7 days
  • Water Temperature
  • Satellite Maps
  • Weather Map
  • Weather Widgets
  • user-avatar
    Login

    Hourly Weather Blizianka

    Today, 25 March, Monday

    Time Temperature Precipitation Wind Pressure Humidity
    00:00 +6°C° 0.2 mm 1 mps 728 mmHg 66%
    01:00 +6°C° 0 mm 1 mps 728 mmHg 72%
    02:00 +6°C° 0.2 mm 1 mps 727 mmHg 75%
    03:00 +6°C° 0.2 mm 1 mps 727 mmHg 78%
    04:00 +6°C° 0.2 mm 1 mps 726 mmHg 81%
    05:00 +6°C° 0.1 mm 1 mps 726 mmHg 82%
    06:00 +5°C° 0.1 mm 2 mps 726 mmHg 83%
    07:00 +5°C° 0 mm 2 mps 726 mmHg 83%
    08:00 +6°C° 0 mm 2 mps 726 mmHg 75%
    09:00 +7°C° 0 mm 2 mps 725 mmHg 67%
    10:00 +8°C° 0 mm 3 mps 725 mmHg 59%
    11:00 +9°C° 0.1 mm 3 mps 725 mmHg 56%
    12:00 +9°C° 0.1 mm 3 mps 725 mmHg 53%
    13:00 +10°C° 0.1 mm 4 mps 725 mmHg 49%
    14:00 +8°C° 0.1 mm 4 mps 724 mmHg 50%
    15:00 +8°C° 0.1 mm 4 mps 724 mmHg 51%
    16:00 +8°C° 0.1 mm 4 mps 724 mmHg 52%
    17:00 +7°C° 0.1 mm 4 mps 724 mmHg 57%
    18:00 +5°C° 0.1 mm 4 mps 724 mmHg 63%
    19:00 +4°C° 0.1 mm 4 mps 725 mmHg 69%
    20:00 +4°C° 0 mm 4 mps 725 mmHg 72%
    21:00 +3°C° 0 mm 4 mps 726 mmHg 75%
    22:00 +2°C° 0 mm 3 mps 726 mmHg 77%
    23:00 +1°C° 0 mm 4 mps 727 mmHg 79%

    Tomorrow, 26 March, Tuesday

    Time Temperature Precipitation Wind Pressure Humidity
    00:00 +1°C° 0 mm 4 mps 727 mmHg 81%
    01:00 0°C° 0 mm 4 mps 728 mmHg 84%
    02:00 0°C° 0 mm 4 mps 728 mmHg 86%
    03:00 0°C° 0 mm 4 mps 728 mmHg 88%
    04:00 0°C° 0 mm 3 mps 729 mmHg 90%
    05:00 -1°C° 0 mm 4 mps 729 mmHg 88%
    06:00 -1°C° 0 mm 4 mps 730 mmHg 85%
    07:00 -1°C° 0 mm 4 mps 730 mmHg 83%
    08:00 0°C° 0 mm 5 mps 731 mmHg 77%
    09:00 +1°C° 0 mm 5 mps 731 mmHg 72%
    10:00 +2°C° 0 mm 5 mps 731 mmHg 66%
    11:00 +3°C° 0 mm 6 mps 731 mmHg 63%
    12:00 +3°C° 0 mm 6 mps 731 mmHg 60%
    13:00 +4°C° 0 mm 6 mps 731 mmHg 57%
    14:00 +4°C° 0 mm 7 mps 730 mmHg 56%
    15:00 +4°C° 0 mm 7 mps 730 mmHg 56%
    16:00 +4°C° 0 mm 7 mps 730 mmHg 56%
    17:00 +3°C° 0.2 mm 7 mps 730 mmHg 59%
    18:00 +3°C° 0.2 mm 7 mps 730 mmHg 62%
    19:00 +2°C° 0.2 mm 7 mps 730 mmHg 64%
    20:00 0°C° 0.1 mm 7 mps 730 mmHg 67%
    21:00 0°C° 0.1 mm 7 mps 731 mmHg 70%
    22:00 -1°C° 0.1 mm 7 mps 732 mmHg 72%
    23:00 -2°C° 0 mm 6 mps 732 mmHg 70%

    Day after tomorrow, 27 March, Wednesday

    Time Temperature Precipitation Wind Pressure Humidity
    00:00 -4°C° 0 mm 5 mps 733 mmHg 68%
    01:00 -4°C° 0 mm 4 mps 733 mmHg 66%
    02:00 -4°C° 0 mm 3 mps 733 mmHg 68%
    03:00 -4°C° 0 mm 3 mps 734 mmHg 70%
    04:00 -5°C° 0 mm 3 mps 734 mmHg 71%
    05:00 -4°C° 0 mm 3 mps 735 mmHg 68%
    06:00 -3°C° 0 mm 4 mps 735 mmHg 64%
    07:00 -3°C° 0 mm 4 mps 736 mmHg 61%
    08:00 -1°C° 0 mm 4 mps 736 mmHg 55%
    09:00 0°C° 0 mm 4 mps 736 mmHg 49%
    10:00 +3°C° 0 mm 4 mps 736 mmHg 44%
    11:00 +4°C° 0 mm 4 mps 736 mmHg 41%
    12:00 +5°C° 0 mm 4 mps 736 mmHg 39%
    13:00 +5°C° 0 mm 4 mps 736 mmHg 37%
    14:00 +5°C° 0 mm 4 mps 736 mmHg 40%
    15:00 +5°C° 0 mm 4 mps 736 mmHg 44%
    16:00 +6°C° 0 mm 4 mps 736 mmHg 48%
    17:00 +5°C° 0.1 mm 3 mps 736 mmHg 56%
    18:00 +5°C° 0.1 mm 2 mps 736 mmHg 65%
    19:00 +5°C° 0.1 mm 1 mps 736 mmHg 73%
    20:00 +5°C° 0.3 mm 1 mps 737 mmHg 77%
    21:00 +4°C° 0.3 mm 1 mps 737 mmHg 80%
    22:00 +4°C° 0.3 mm 1 mps 737 mmHg 83%
    23:00 +4°C° 0.2 mm 1 mps 737 mmHg 86%

    28 March, Thursday

    Time Temperature Precipitation Wind Pressure Humidity
    00:00 +4°C° 0.2 mm 1 mps 737 mmHg 88%
    01:00 +3°C° 0.2 mm 0 mps 738 mmHg 91%
    02:00 +4°C° 0 mm 1 mps 738 mmHg 92%
    03:00 +3°C° 0 mm 1 mps 738 mmHg 94%
    04:00 +3°C° 0 mm 1 mps 738 mmHg 95%
    05:00 +3°C° 0 mm 1 mps 738 mmHg 94%
    06:00 +4°C° 0 mm 1 mps 738 mmHg 92%
    07:00 +5°C° 0 mm 1 mps 738 mmHg 91%
    08:00 +5°C° 0.1 mm 1 mps 739 mmHg 88%
    09:00 +6°C° 0.1 mm 1 mps 739 mmHg 84%
    10:00 +7°C° 0.1 mm 1 mps 739 mmHg 81%
    11:00 +7°C° 0.2 mm 1 mps 739 mmHg 78%
    12:00 +8°C° 0.2 mm 1 mps 739 mmHg 76%
    13:00 +9°C° 0.2 mm 1 mps 739 mmHg 73%
    14:00 +9°C° 0.1 mm 1 mps 739 mmHg 71%
    15:00 +9°C° 0.1 mm 1 mps 739 mmHg 69%
    16:00 +10°C° 0.1 mm 1 mps 739 mmHg 67%
    17:00 +8°C° 0 mm 1 mps 739 mmHg 72%
    18:00 +7°C° 0 mm 1 mps 740 mmHg 78%
    19:00 +6°C° 0 mm 1 mps 740 mmHg 84%
    20:00 +5°C° 0 mm 1 mps 740 mmHg 85%
    21:00 +4°C° 0 mm 1 mps 740 mmHg 85%
    22:00 +3°C° 0 mm 0 mps 741 mmHg 86%
    23:00 +3°C° 0 mm 0 mps 741 mmHg 86%

    29 March, Friday

    Time Temperature Precipitation Wind Pressure Humidity
    00:00 +2°C° 0 mm 0 mps 741 mmHg 87%
    01:00 +2°C° 0 mm 0 mps 741 mmHg 87%
    02:00 +2°C° 0 mm 0 mps 741 mmHg 87%
    03:00 +2°C° 0 mm 0 mps 741 mmHg 88%
    04:00 +2°C° 0 mm 1 mps 741 mmHg 88%
    05:00 +3°C° 0 mm 1 mps 741 mmHg 87%
    06:00 +4°C° 0 mm 1 mps 742 mmHg 85%
    07:00 +5°C° 0 mm 1 mps 742 mmHg 84%
    08:00 +5°C° 0 mm 2 mps 742 mmHg 79%
    09:00 +7°C° 0 mm 2 mps 742 mmHg 74%
    10:00 +9°C° 0 mm 3 mps 742 mmHg 69%
    11:00 +9°C° 0 mm 3 mps 741 mmHg 67%
    12:00 +9°C° 0 mm 3 mps 741 mmHg 65%
    13:00 +10°C° 0 mm 3 mps 741 mmHg 64%
    14:00 +10°C° 0 mm 3 mps 740 mmHg 61%
    15:00 +11°C° 0 mm 3 mps 740 mmHg 58%
    16:00 +11°C° 0 mm 3 mps 740 mmHg 56%
    17:00 +10°C° 0 mm 3 mps 740 mmHg 62%
    18:00 +8°C° 0 mm 2 mps 739 mmHg 68%
    19:00 +7°C° 0 mm 2 mps 739 mmHg 74%
    20:00 +6°C° 0 mm 2 mps 739 mmHg 76%
    21:00 +6°C° 0 mm 2 mps 739 mmHg 77%
    22:00 +5°C° 0 mm 2 mps 739 mmHg 79%
    23:00 +5°C° 0 mm 2 mps 739 mmHg 80%

    30 March, Saturday

    Time Temperature Precipitation Wind Pressure Humidity
    00:00 +5°C° 0 mm 2 mps 739 mmHg 81%
    01:00 +5°C° 0 mm 2 mps 739 mmHg 83%
    02:00 +4°C° 0 mm 2 mps 739 mmHg 85%
    03:00 +4°C° 0 mm 2 mps 738 mmHg 87%
    04:00 +4°C° 0 mm 2 mps 738 mmHg 89%
    05:00 +4°C° 0 mm 2 mps 738 mmHg 88%
    06:00 +5°C° 0 mm 2 mps 738 mmHg 86%
    07:00 +6°C° 0 mm 2 mps 738 mmHg 85%
    08:00 +8°C° 0 mm 2 mps 738 mmHg 80%
    09:00 +10°C° 0 mm 3 mps 738 mmHg 75%
    10:00 +11°C° 0 mm 3 mps 738 mmHg 70%
    11:00 +12°C° 0 mm 3 mps 737 mmHg 67%
    12:00 +13°C° 0 mm 3 mps 737 mmHg 64%
    13:00 +13°C° 0 mm 3 mps 736 mmHg 61%
    14:00 +15°C° 0 mm 2 mps 736 mmHg 60%
    15:00 +15°C° 0 mm 2 mps 735 mmHg 58%
    16:00 +15°C° 0 mm 2 mps 735 mmHg 56%
    17:00 +14°C° 0 mm 2 mps 735 mmHg 62%
    18:00 +12°C° 0 mm 1 mps 734 mmHg 69%
    19:00 +10°C° 0 mm 1 mps 734 mmHg 75%
    20:00 +10°C° 0 mm 1 mps 734 mmHg 76%
    21:00 +9°C° 0 mm 1 mps 733 mmHg 78%
    22:00 +9°C° 0 mm 1 mps 733 mmHg 80%
    23:00 +8°C° 0 mm 1 mps 733 mmHg 82%
    Show more